Epoch,demod_status_bits,ebno,lock_status,signal_level,viterbi_ber
1663745711,,,0xc0504d,-38.7,
1663745712,C;S;V;F,13.3,0x00c000,,1.51e-7
1663745713,C;S;V;F,13.8,0x00c000,-37.9,1.51e-7
1663745714,C;S;V;F,13.7,0x00c000,-38.3,0.00e-0
1663745715,C;S;V;F,13.7,0x00c000,-37.9,0.00e-0
1663745716,C;S;V;F,13.9,0x00c000,-38.6,0.00e-0
1663745717,C;S;V;F,13.8,0x00c000,-38.0,0.00e-0
1663745718,C;S;V;F,13.5,0x00c000,-38.1,0.00e-0
1663745719,C;S;V;F,14.1,0x00c000,-38.0,
1663745720,,13.7,0x00c000,-38.4,0.00e-0
1663745721,C;S;V;F,14.2,0x00c000,-38.0,0.00e-0
1663745722,C;S;V;F,13.8,0x00c000,-38.1,0.00e-0
1663745723,C;S;V;F,14.4,0x00c000,-37.9,0.00e-0
1663745724,C;S;V;F,,0x00c000,-37.9,0.00e-0
1663745725,C;S;V;F,14.2,0x00c000,-37.8,0.00e-0
1663745726,C;S;V;F,14.0,0x00c000,,0.00e-0
1663745727,C;S;V;F,14.7,0x00c000,-37.5,0.00e-0
1663745728,C;S;V;F,13.9,0x00c000,-38.3,0.00e-0
1663745729,C;S;V;F,14.6,0x00c000,-37.7,0.00e-0
1663745730,C;S;V;F,13.8,0x00c000,-37.7,0.00e-0
1663745731,C;S;V;F,14.3,0x00c000,-37.7,0.00e-0
1663745732,C;S;V;F,14.3,0x00c000,-37.7,0.00e-0
1663745733,C;S;V;F,14.7,0x00c000,-38.1,
1663745734,,14.7,0x00c000,-37.2,0.00e-0
1663745735,C;S;V;F,14.4,0x00c000,-37.8,0.00e-0
1663745736,C;S;V;F,,0x00c000,-37.8,0.00e-0
1663745737,C;S;V;F,14.1,0x00c000,,0.00e-0
1663745738,C;S;V;F,14.5,0x00c000,-37.8,0.00e-0
1663745739,C;S;V;F,14.4,0x00c000,-37.5,0.00e-0
1663745740,C;S;V;F,14.9,0x00c000,-37.5,0.00e-0
1663745741,C;S;V;F,14.6,0x00c000,-37.6,0.00e-0
1663745742,C;S;V;F,15.1,0x00c000,-37.6,0.00e-0
1663745743,C;S;V;F,14.7,0x00c000,-37.2,0.00e-0
1663745744,C;S;V;F,14.7,0x00c000,-37.4,
1663745745,,14.7,0x00c000,-37.4,0.00e-0
1663745746,C;S;V;F,15.0,0x00c000,-37.5,0.00e-0
1663745747,C;S;V;F,,,,0.00e-0
1663745749,C;S;V;F,14.4,0x00c000,-37.7,0.00e-0
1663745750,C;S;V;F,14.9,0x00c000,-37.1,
1663745751,,14.9,0x00c000,-37.3,0.00e-0
1663745752,C;S;V;F,,0x00c000,-37.3,0.00e-0
1663745753,C;S;V;F,14.7,0x00c000,-37.5,0.00e-0
1663745754,C;S;V;F,14.8,0x00c000,,0.00e-0
1663745755,C;S;V;F,15.2,0x00c000,-37.1,0.00e-0
1663745756,C;S;V;F,15.0,0x00c000,-37.1,0.00e-0
1663745757,,15.1,0x00c000,-37.0,
1663745758,C;S;V;F,15.3,0x00c000,-37.0,0.00e-0
1663745759,C;S;V;F,15.0,0x00c000,-37.0,0.00e-0
1663745760,C;S;V;F,,0x00c000,-36.8,0.00e-0
1663745761,C;S;V;F,15.2,0x00c000,-36.7,0.00e-0
1663745762,C;S;V;F,15.3,0x00c000,,0.00e-0
1663745763,C;S;V;F,15.3,0x00c000,-36.7,0.00e-0
1663745764,C;S;V;F,15.2,0x00c000,-37.0,0.00e-0
1663745765,C;S;V;F,15.4,0x00c000,-36.4,0.00e-0
1663745766,C;S;V;F,15.2,0x00c000,-36.9,0.00e-0
1663745767,C;S;V;F,15.4,0x00c000,-36.5,0.00e-0
1663745768,C;S;V;F,15.7,0x00c000,-36.7,0.00e-0
1663745769,C;S;V;F,15.8,0x00c000,-36.6,0.00e-0
1663745770,,15.2,0x00c000,-36.8,
1663745771,C;S;V;F,15.3,0x00c000,-36.8,0.00e-0
1663745772,C;S;V;F,15.4,0x00c000,-36.4,0.00e-0
1663745773,C;S;V;F,15.6,0x00c000,-36.5,0.00e-0
1663745774,C;S;V;F,,0x00c000,-36.3,0.00e-0
1663745775,C;S;V;F,15.6,0x00c000,-36.5,0.00e-0
1663745776,C;S;V;F,15.7,0x00c000,,0.00e-0
1663745777,C;S;V;F,15.7,0x00c000,-36.4,0.00e-0
1663745778,C;S;V;F,15.7,0x00c000,-36.5,0.00e-0
1663745779,C;S;V;F,15.9,0x00c000,-36.3,0.00e-0
1663745780,C;S;V;F,15.7,0x00c000,-36.3,0.00e-0
1663745781,C;S;V;F,15.8,0x00c000,-36.4,0.00e-0
1663745782,C;S;V;F,16.2,0x00c000,-36.3,0.00e-0
1663745783,C;S;V;F,15.8,0x00c000,-36.3,0.00e-0
1663745784,C;S;V;F,16.0,0x00c000,-36.4,
1663745785,,16.1,0x00c000,-36.2,0.00e-0
1663745786,C;S;V;F,15.8,0x00c000,-36.2,0.00e-0
1663745787,C;S;V;F,16.0,0x00c000,-36.4,0.00e-0
1663745788,C;S;V;F,,0x00c000,-36.3,0.00e-0
1663745789,C;S;V;F,16.1,0x00c000,,0.00e-0
1663745790,C;S;V;F,16.1,0x00c000,-36.2,0.00e-0
1663745791,C;S;V;F,16.1,0x00c000,-36.3,0.00e-0
1663745792,C;S;V;F,16.1,0x00c000,-36.2,0.00e-0
1663745793,C;S;V;F,15.9,0x00c000,-36.4,0.00e-0
1663745794,,16.2,0x00c000,-36.3,
1663745795,C;S;V;F,16.0,0x00c000,-36.3,0.00e-0
1663745796,C;S;V;F,16.0,0x00c000,-36.1,0.00e-0
1663745797,C;S;V;F,16.3,0x00c000,-36.4,0.00e-0
1663745798,C;S;V;F,,0x00c000,,0.00e-0
1663745799,C;S;V;F,16.1,0x00c000,-36.3,0.00e-0
1663745800,C;S;V;F,16.1,0x00c000,-36.2,0.00e-0
1663745801,C;S;V;F,16.1,0x00c000,-36.3,0.00e-0
1663745802,C;S;V;F,16.2,0x00c000,-36.3,0.00e-0
1663745803,C;S;V;F,16.3,0x00c000,-36.2,0.00e-0
1663745804,C;S;V;F,16.1,0x00c000,-36.4,0.00e-0
1663745805,C;S;V;F,16.1,0x00c000,-36.2,0.00e-0
1663745806,C;S;V;F,16.3,0x00c000,-36.2,0.00e-0
1663745807,C;S;V;F,15.9,0x00c000,-36.2,
1663745808,,16.2,0x00c000,-36.1,0.00e-0
1663745809,C;S;V;F,16.5,0x00c000,-36.2,0.00e-0
1663745810,C;S;V;F,,0x00c000,,0.00e-0
1663745812,C;S;V;F,16.4,0x00c000,-36.1,0.00e-0
1663745813,C;S;V;F,16.3,0x00c000,-36.2,0.00e-0
1663745814,C;S;V;F,16.5,0x00c000,-36.2,0.00e-0
1663745815,C;S;V;F,16.3,0x00c000,-36.3,0.00e-0
1663745816,C;S;V;F,16.2,0x00c000,-36.3,0.00e-0
1663745817,C;S;V;F,16.4,0x00c000,-36.1,0.00e-0
1663745818,C;S;V;F,16.2,0x00c000,-36.2,
1663745819,,16.4,0x00c000,-36.0,0.00e-0
1663745820,C;S;V;F,16.4,0x00c000,-36.3,0.00e-0
1663745821,C;S;V;F,16.3,0x00c000,-36.3,0.00e-0
1663745822,C;S;V;F,,0x00c000,-36.3,0.00e-0
1663745823,C;S;V;F,16.1,0x00c000,-36.0,0.00e-0
1663745824,C;S;V;F,16.4,0x00c000,,0.00e-0
1663745825,C;S;V;F,16.3,0x00c000,-36.4,0.00e-0
1663745826,C;S;V;F,16.2,0x00c000,-36.4,0.00e-0
1663745827,C;S;V;F,16.5,0x00c000,-36.2,0.00e-0
1663745828,C;S;V;F,16.3,0x00c000,-36.3,0.00e-0
1663745829,C;S;V;F,16.0,0x00c000,-36.4,0.00e-0
1663745830,C;S;V;F,16.3,0x00c000,-36.3,0.00e-0
1663745831,C;S;V;F,16.3,0x00c000,-36.3,0.00e-0
1663745832,C;S;V;F,16.5,0x00c000,-36.4,0.00e-0
1663745833,,16.3,0x00c000,-36.4,
1663745834,C;S;V;F,16.3,0x00c000,-36.4,0.00e-0
1663745835,C;S;V;F,16.3,0x00c000,-36.4,0.00e-0
1663745836,C;S;V;F,,0x00c000,-36.3,0.00e-0
1663745837,C;S;V;F,16.1,0x00c000,,0.00e-0
1663745838,C;S;V;F,16.4,0x00c000,-36.4,0.00e-0
1663745839,C;S;V;F,16.4,0x00c000,-36.4,0.00e-0
1663745840,C;S;V;F,16.3,0x00c000,-36.5,0.00e-0
1663745841,C;S;V;F,16.3,0x00c000,-36.4,0.00e-0
1663745842,,16.4,0x00c000,-36.4,
1663745843,C;S;V;F,16.2,0x00c000,-36.5,0.00e-0
1663745844,C;S;V;F,16.2,0x00c000,-36.4,0.00e-0
1663745845,C;S;V;F,16.3,0x00c000,-36.4,0.00e-0
1663745846,C;S;V;F,,0x00c000,-36.2,0.00e-0
1663745847,C;S;V;F,16.4,0x00c000,-36.4,0.00e-0
1663745848,C;S;V;F,16.2,0x00c000,,0.00e-0
1663745849,C;S;V;F,16.3,0x00c000,-36.4,0.00e-0
1663745850,C;S;V;F,16.3,0x00c000,-36.3,0.00e-0
1663745851,C;S;V;F,16.4,0x00c000,-36.4,0.00e-0
1663745852,C;S;V;F,16.2,0x00c000,-36.4,0.00e-0
1663745853,C;S;V;F,16.3,0x00c000,-36.4,0.00e-0
1663745854,C;S;V;F,16.2,0x00c000,-36.3,0.00e-0
1663745855,C;S;V;F,16.2,0x00c000,-36.3,0.00e-0
1663745856,,16.3,0x00c000,-36.4,
1663745857,C;S;V;F,16.3,0x00c000,-36.3,0.00e-0
1663745858,C;S;V;F,16.2,0x00c000,-36.4,0.00e-0
1663745859,C;S;V;F,16.2,0x00c000,-36.4,0.00e-0
1663745860,C;S;V;F,,0x00c000,,0.00e-0
1663745861,C;S;V;F,16.2,0x00c000,-36.4,0.00e-0
1663745862,C;S;V;F,16.3,0x00c000,-36.4,0.00e-0
1663745863,C;S;V;F,16.2,0x00c000,-36.5,0.00e-0
1663745864,C;S;V;F,16.2,0x00c000,-36.7,0.00e-0
1663745865,C;S;V;F,16.3,0x00c000,-36.4,0.00e-0
1663745866,,16.1,0x00c000,-36.7,
1663745867,C;S;V;F,16.2,0x00c000,-36.7,0.00e-0
1663745868,C;S;V;F,16.1,0x00c000,-36.6,0.00e-0
1663745869,C;S;V;F,,0x00c000,-36.8,0.00e-0
1663745870,C;S;V;F,16.2,0x00c000,,0.00e-0
1663745871,C;S;V;F,16.0,0x00c000,-36.7,0.00e-0
1663745872,C;S;V;F,16.2,0x00c000,-36.7,0.00e-0
1663745874,,,0x00c000,-36.5,
1663745875,C;S;V;F,16.2,0x00c000,,0.00e-0
1663745876,C;S;V;F,16.3,0x00c000,-36.4,0.00e-0
1663745877,C;S;V;F,16.2,0x00c000,-36.4,0.00e-0
1663745878,C;S;V;F,16.6,0x00c000,-36.3,0.00e-0
1663745879,C;S;V;F,16.6,0x00c000,-36.2,0.00e-0
1663745880,C;S;V;F,16.5,0x00c000,-36.3,0.00e-0
1663745881,C;S;V;F,16.7,0x00c000,-36.1,0.00e-0
1663745882,C;S;V;F,16.6,0x00c000,-36.0,0.00e-0
1663745883,C;S;V;F,16.5,0x00c000,-36.2,0.00e-0
1663745884,C;S;V;F,16.5,0x00c000,-35.9,0.00e-0
1663745885,C;S;V;F,16.7,0x00c000,-35.9,
1663745886,,16.6,0x00c000,-35.7,0.00e-0
1663745887,C;S;V;F,16.7,0x00c000,-35.7,0.00e-0
1663745888,C;S;V;F,16.9,0x00c000,-35.8,0.00e-0
1663745889,C;S;V;F,,0x00c000,-35.8,0.00e-0
1663745890,C;S;V;F,16.8,0x00c000,,0.00e-0
1663745891,C;S;V;F,16.8,0x00c000,-35.7,0.00e-0
1663745892,C;S;V;F,17.0,0x00c000,-35.8,0.00e-0
1663745893,C;S;V;F,16.7,0x00c000,-35.6,0.00e-0
1663745894,C;S;V;F,16.8,0x00c000,-35.6,0.00e-0
1663745895,C;S;V;F,16.9,0x00c000,-35.5,0.00e-0
1663745896,C;S;V;F,17.2,0x00c000,-35.5,0.00e-0
1663745897,C;S;V;F,17.0,0x00c000,-35.2,0.00e-0
1663745898,C;S;V;F,17.0,0x00c000,-35.3,
1663745899,,17.1,0x00c000,-35.3,0.00e-0
1663745900,C;S;V;F,17.5,0x00c000,-35.0,0.00e-0
1663745901,C;S;V;F,17.3,0x00c000,-35.1,0.00e-0
1663745902,C;S;V;F,,0x00c000,-35.2,0.00e-0
1663745903,C;S;V;F,17.4,0x00c000,-35.2,0.00e-0
1663745904,C;S;V;F,17.4,0x00c000,,0.00e-0
1663745905,C;S;V;F,17.5,0x00c000,-35.1,0.00e-0
1663745906,C;S;V;F,17.5,0x00c000,-35.1,0.00e-0
1663745907,C;S;V;F,17.4,0x00c000,-35.1,0.00e-0
1663745908,C;S;V;F,17.6,0x00c000,-35.1,0.00e-0
1663745909,C;S;V;F,17.6,0x00c000,-35.1,0.00e-0
1663745910,C;S;V;F,17.5,0x00c000,-35.0,0.00e-0
1663745911,C;S;V;F,17.4,0x00c000,-35.0,0.00e-0
1663745912,,17.5,0x00c000,-35.2,
1663745913,C;S;V;F,,,,0.00e-0
1663745916,,16.9,0x00c000,-35.8,
1663745917,C;S;V;F,,0x00c000,-36.1,0.00e-0
1663745918,C;S;V;F,16.7,0x00c000,-36.2,0.00e-0
1663745919,C;S;V;F,16.7,0x00c000,,0.00e-0
1663745920,C;S;V;F,16.4,0x00c000,-36.3,0.00e-0
1663745921,C;S;V;F,16.3,0x00c000,-36.6,0.00e-0
1663745922,C;S;V;F,16.0,0x00c000,-36.8,0.00e-0
1663745923,C;S;V;F,16.0,0x00c000,-37.0,0.00e-0
1663745924,C;S;V;F,16.0,0x00c000,-37.0,0.00e-0
1663745925,C;S;V;F,15.8,0x00c000,-36.9,0.00e-0
1663745926,C;S;V;F,16.0,0x00c000,-36.9,0.00e-0
1663745927,C;S;V;F,16.1,0x00c000,-36.9,0.00e-0
1663745928,C;S;V;F,16.0,0x00c000,-36.9,0.00e-0
1663745929,C;S;V;F,15.8,0x00c000,-37.2,
1663745930,,15.6,0x00c000,-37.2,0.00e-0
1663745931,C;S;V;F,15.5,0x00c000,-37.5,0.00e-0
1663745932,C;S;V;F,15.3,0x00c000,-37.6,0.00e-0
1663745933,C;S;V;F,,0x00c000,-37.8,0.00e-0
1663745934,C;S;V;F,15.1,0x00c000,,0.00e-0
1663745935,C;S;V;F,15.2,0x00c000,-38.0,0.00e-0
1663745937,,15.0,0x00c000,-38.0,
1663745938,C;S;V;F,15.0,0x00c000,-38.2,0.00e-0
1663745939,C;S;V;F,,0x00c000,-38.3,0.00e-0
1663745940,C;S;V;F,14.8,0x00c000,-38.0,0.00e-0
1663745941,C;S;V;F,15.0,0x00c000,,0.00e-0
1663745942,C;S;V;F,15.1,0x00c000,-38.0,0.00e-0
1663745943,C;S;V;F,15.2,0x00c000,-38.0,0.00e-0
1663745944,C;S;V;F,14.8,0x00c000,-38.3,0.00e-0
1663745945,C;S;V;F,14.9,0x00c000,-38.3,0.00e-0
1663745946,C;S;V;F,14.7,0x00c000,-38.2,0.00e-0
1663745947,C;S;V;F,14.7,0x00c000,-38.6,0.00e-0
1663745948,C;S;V;F,14.6,0x00c000,-38.5,0.00e-0
1663745949,C;S;V;F,14.7,0x00c000,-38.4,0.00e-0
1663745950,C;S;V;F,14.8,0x00c000,-38.3,
1663745951,C;S;V;F,14.8,0x00c000,-38.4,0.00e-0
1663745952,,14.7,0x00c000,-38.3,0.00e-0
1663745953,C;S;V;F,14.9,0x00c000,-38.4,0.00e-0
1663745954,C;S;V;F,14.8,0x00c000,-38.4,0.00e-0
1663745955,C;S;V;F,,0x00c000,-38.6,0.00e-0
1663745956,C;S;V;F,14.4,0x00c000,-38.5,0.00e-0
1663745957,C;S;V;F,14.6,0x00c000,,0.00e-0
1663745958,C;S;V;F,14.8,0x00c000,-38.6,0.00e-0
1663745959,C;S;V;F,14.6,0x00c000,-38.6,0.00e-0
1663745960,C;S;V;F,14.4,0x00c000,-38.7,0.00e-0
1663745961,C;S;V;F,14.5,0x00c000,-38.7,0.00e-0
1663745962,C;S;V;F,14.2,0x00c000,-38.8,0.00e-0
1663745963,C;S;V;F,14.1,0x00c000,-39.1,0.00e-0
1663745964,C;S;V;F,14.0,0x00c000,-39.4,0.00e-0
1663745965,C;S;V;F,13.5,0x00c000,-39.6,
1663745966,,13.7,0x00c000,-39.6,0.00e-0
1663745967,C;S;V;F,13.4,0x00c000,-39.6,0.00e-0
1663745968,C;S;V;F,13.4,0x00c000,-39.5,0.00e-0
1663745969,C;S;V;F,13.6,0x00c000,-39.6,0.00e-0
1663745970,C;S;V;F,,0x00c000,-39.6,0.00e-0
1663745971,C;S;V;F,13.6,0x00c000,-39.6,0.00e-0
1663745972,C;S;V;F,13.3,0x00c000,-39.6,0.00e-0
1663745973,C;S;V;F,13.7,0x00c000,,0.00e-0
1663745974,C;S;V;F,13.5,0x00c000,-39.5,0.00e-0
1663745975,C;S;V;F,13.8,0x00c000,-39.4,0.00e-0
1663745976,C;S;V;F,13.8,0x00c000,-39.5,0.00e-0
1663745977,C;S;V;F,13.9,0x00c000,-39.2,0.00e-0
1663745978,C;S;V;F,14.2,0x00c000,-38.8,0.00e-0
1663745979,C;S;V;F,14.4,0x00c000,-38.7,0.00e-0
1663745980,C;S;V;F,14.7,0x00c000,-38.7,
1663745981,,14.5,0x00c000,-38.5,0.00e-0
1663745982,C;S;V;F,14.9,0x00c000,-38.3,0.00e-0
1663745983,C;S;V;F,15.1,0x00c000,-38.0,0.00e-0
1663745984,C;S;V;F,15.0,0x00c000,-38.0,0.00e-0
1663745985,C;S;V;F,,0x00c000,-38.0,0.00e-0
1663745986,C;S;V;F,15.1,0x00c000,,0.00e-0
1663745987,C;S;V;F,14.7,0x00c000,-38.2,0.00e-0
1663745988,C;S;V;F,14.9,0x00c000,-38.3,0.00e-0
1663745989,C;S;V;F,15.1,0x00c000,-38.0,0.00e-0
1663745990,C;S;V;F,15.0,0x00c000,-38.0,0.00e-0
1663745991,C;S;V;F,15.0,0x00c000,-38.0,0.00e-0
1663745992,C;S;V;F,15.0,0x00c000,-38.4,0.00e-0
1663745993,C;S;V;F,14.6,0x00c000,-38.5,0.00e-0
1663745994,C;S;V;F,14.5,0x00c000,-38.6,0.00e-0
1663745995,C;S;V;F,14.5,0x00c000,-38.9,
1663745996,,14.4,0x00c000,-38.6,0.00e-0
1663745997,C;S;V;F,15.0,0x00c000,-38.3,0.00e-0
1663745998,C;S;V;F,,0x00c000,,0.00e-0
1663746000,C;S;V;F,15.2,0x00c000,-38.0,0.00e-0
1663746001,C;S;V;F,15.3,0x00c000,-37.8,0.00e-0
1663746002,C;S;V;F,15.3,0x00c000,-38.0,
1663746003,,15.1,0x00c000,-38.0,0.00e-0
1663746004,C;S;V;F,15.1,0x00c000,-37.9,0.00e-0
1663746005,C;S;V;F,15.5,0x00c000,-37.2,0.00e-0
1663746006,C;S;V;F,,0x00c000,-36.2,0.00e-0
1663746007,C;S;V;F,16.3,0x00c000,-35.7,0.00e-0
1663746008,C;S;V;F,17.0,0x00c000,,0.00e-0
1663746009,C;S;V;F,17.6,0x00c000,-35.0,0.00e-0
1663746010,C;S;V;F,17.8,0x00c000,-34.6,0.00e-0
1663746011,C;S;V;F,18.2,0x00c000,-34.2,0.00e-0
1663746012,C;S;V;F,18.2,0x00c000,-33.8,0.00e-0
1663746013,C;S;V;F,18.6,0x00c000,-33.3,0.00e-0
1663746014,C;S;V;F,18.7,0x00c000,-33.1,0.00e-0
1663746015,C;S;V;F,18.9,0x00c000,-32.8,0.00e-0
1663746016,C;S;V;F,18.9,0x00c000,-32.7,0.00e-0
1663746017,C;S;V;F,19.1,0x00c000,-32.4,
1663746018,,19.0,0x00c000,-32.3,0.00e-0
1663746019,C;S;V;F,19.1,0x00c000,-32.1,0.00e-0
1663746020,C;S;V;F,19.0,0x00c000,-32.1,0.00e-0
1663746021,C;S;V;F,,0x00c000,-32.0,0.00e-0
1663746022,C;S;V;F,19.1,0x00c000,-32.2,0.00e-0
1663746023,C;S;V;F,19.1,0x00c000,,0.00e-0
1663746024,C;S;V;F,19.1,0x00c000,-32.5,0.00e-0
1663746025,C;S;V;F,18.9,0x00c000,-33.0,0.00e-0
1663746026,C;S;V;F,18.7,0x00c000,-33.2,0.00e-0
1663746027,C;S;V;F,18.5,0x00c000,-33.9,0.00e-0
1663746028,C;S;V;F,17.8,0x00c000,-34.5,0.00e-0
1663746029,C;S;V;F,17.6,0x00c000,-34.9,0.00e-0
1663746030,C;S;V;F,17.5,0x00c000,-35.3,0.00e-0
1663746031,C;S;V;F,17.6,0x00c000,-35.2,0.00e-0
1663746032,C;S;V;F,17.5,0x00c000,-35.3,0.00e-0
1663746033,,16.8,0x00c000,-36.0,
1663746034,C;S;V;F,16.8,0x00c000,-36.1,0.00e-0
1663746035,C;S;V;F,16.7,0x00c000,-36.0,0.00e-0
1663746036,C;S;V;F,,0x00c000,-36.2,0.00e-0
1663746037,C;S;V;F,17.0,0x00c000,,0.00e-0
1663746038,C;S;V;F,16.7,0x00c000,-36.2,0.00e-0
1663746039,C;S;V;F,16.6,0x00c000,-36.0,0.00e-0
1663746040,C;S;V;F,17.0,0x00c000,-35.7,0.00e-0
1663746041,C;S;V;F,17.6,0x00c000,-35.6,0.00e-0
1663746042,C;S;V;F,17.6,0x00c000,-35.2,0.00e-0
1663746043,C;S;V;F,18.0,0x00c000,-34.6,0.00e-0
1663746044,C;S;V;F,18.0,0x00c000,-34.6,0.00e-0
1663746045,C;S;V;F,17.8,0x00c000,-35.0,
1663746046,,17.5,0x00c000,-35.3,0.00e-0
1663746047,C;S;V;F,17.4,0x00c000,-35.2,0.00e-0
1663746048,C;S;V;F,17.8,0x00c000,-34.7,0.00e-0
1663746049,C;S;V;F,,0x00c000,,0.00e-0
1663746050,C;S;V;F,18.0,0x00c000,-34.4,0.00e-0
1663746051,C;S;V;F,17.8,0x00c000,-34.7,0.00e-0
1663746052,C;S;V;F,17.2,0x00c000,-35.4,0.00e-0
1663746053,C;S;V;F,17.2,0x00c000,-35.6,0.00e-0
1663746054,C;S;V;F,17.3,0x00c000,-35.1,0.00e-0
1663746055,C;S;V;F,17.1,0x00c000,-35.3,0.00e-0
1663746056,,,0x00c000,-35.2,
1663746057,C;S;V;F,17.6,0x00c000,,0.00e-0
1663746058,C;S;V;F,17.7,0x00c000,-34.6,0.00e-0
1663746059,C;S;V;F,17.5,0x00c000,-34.9,0.00e-0
1663746060,C;S;V;F,17.2,0x00c000,-35.7,0.00e-0
1663746063,C;S;V;F,16.3,0x00c000,-36.5,0.00e-0
1663746064,C;S;V;F,16.3,0x00c000,-36.4,0.00e-0
1663746065,C;S;V;F,16.6,0x00c000,-36.3,0.00e-0
1663746066,C;S;V;F,16.5,0x00c000,-36.4,0.00e-0
1663746067,C;S;V;F,15.9,0x00c000,-37.1,0.00e-0
1663746068,C;S;V;F,15.5,0x00c000,-37.6,0.00e-0
1663746069,,15.6,0x00c000,-37.5,
1663746070,C;S;V;F,15.5,0x00c000,-37.6,0.00e-0
1663746071,C;S;V;F,14.7,0x00c000,-38.6,0.00e-0
1663746072,C;S;V;F,,0x00c000,-39.2,0.00e-0
1663746073,C;S;V;F,13.8,0x00c000,-38.9,0.00e-0
1663746074,C;S;V;F,14.3,0x00c000,,0.00e-0
1663746075,C;S;V;F,15.2,0x00c000,-37.9,0.00e-0
1663746076,C;S;V;F,15.3,0x00c000,-37.9,0.00e-0
1663746077,C;S;V;F,14.5,0x00c000,-38.7,0.00e-0
1663746078,C;S;V;F,15.1,0x00c000,-37.7,0.00e-0
1663746079,C;S;V;F,16.2,0x00c000,-36.5,0.00e-0
1663746080,C;S;V;F,16.9,0x00c000,-35.7,0.00e-0
1663746081,C;S;V;F,16.9,0x00c000,-36.3,0.00e-0
1663746082,C;S;V;F,16.5,0x00c000,-36.3,0.00e-0
1663746083,C;S;V;F,16.5,0x00c000,-35.6,
1663746084,,17.2,0x00c000,-35.4,0.00e-0
1663746085,C;S;V;F,16.9,0x00c000,-35.7,0.00e-0
1663746086,C;S;V;F,,0x00c000,-35.9,0.00e-0
1663746087,C;S;V;F,16.9,0x00c000,-35.2,0.00e-0
1663746088,C;S;V;F,17.3,0x00c000,,0.00e-0
1663746089,C;S;V;F,17.5,0x00c000,-34.9,0.00e-0
1663746090,C;S;V;F,16.9,0x00c000,-35.8,0.00e-0
1663746091,C;S;V;F,17.1,0x00c000,-35.8,0.00e-0
1663746092,C;S;V;F,17.5,0x00c000,-35.4,0.00e-0
1663746093,C;S;V;F,16.9,0x00c000,-35.8,0.00e-0
1663746094,C;S;V;F,15.5,0x00c000,-38.0,0.00e-0
1663746095,C;S;V;F,14.9,0x00c000,-38.3,0.00e-0
1663746096,C;S;V;F,15.6,0x00c000,-37.4,0.00e-0
1663746097,,15.7,0x00c000,-37.6,
1663746098,C;S;V;F,14.0,0x00c000,-39.9,0.00e-0
1663746099,C;S;V;F,13.2,0x00c000,-40.1,0.00e-0
1663746100,C;S;V;F,14.8,0x00c000,-37.9,0.00e-0
1663746101,C;S;V;F,,0x00c000,-37.9,0.00e-0
1663746102,C;S;V;F,15.6,0x00c000,,0.00e-0
1663746103,C;S;V;F,14.5,0x00c000,-39.3,0.00e-0
1663746104,C;S;V;F,12.9,0x00c000,-40.0,0.00e-0
1663746105,C;S;V;F,14.3,0x00c000,-37.1,0.00e-0
1663746106,C;S;V;F,16.5,0x00c000,-36.4,0.00e-0
1663746107,C;S;V;F,16.3,0x00c000,-36.3,0.00e-0
1663746108,C;S;V;F,16.3,0x00c000,-36.6,0.00e-0
1663746109,C;S;V;F,16.9,0x00c000,-36.1,0.00e-0
1663746110,C;S;V;F,17.6,0x00c000,-34.8,0.00e-0
1663746111,C;S;V;F,16.7,0x00c000,-36.2,0.00e-0
1663746112,C;S;V;F,16.4,0x00c000,-36.7,0.00e-0
1663746113,C;S;V;F,17.8,0x00c000,-34.7,
1663746114,,18.1,0x00c000,-34.0,0.00e-0
1663746115,C;S;V;F,17.6,0x00c000,-35.1,0.00e-0
1663746116,C;S;V;F,,0x00c000,-35.6,0.00e-0
1663746117,C;S;V;F,17.1,0x00c000,-35.4,0.00e-0
1663746118,C;S;V;F,17.4,0x00c000,,0.00e-0
1663746119,C;S;V;F,17.6,0x00c000,-34.8,0.00e-0
1663746120,C;S;V;F,17.9,0x00c000,-34.6,0.00e-0
1663746121,C;S;V;F,17.9,0x00c000,-34.8,0.00e-0
1663746122,C;S;V;F,17.9,0x00c000,-34.7,0.00e-0
1663746123,C;S;V;F,18.5,0x00c000,-33.8,0.00e-0
1663746126,C;S;V;F,18.4,0x00c000,-33.5,0.00e-0
1663746127,C;S;V;F,19.3,0x00c000,-32.1,0.00e-0
1663746128,C;S;V;F,19.2,0x00c000,-32.0,0.00e-0
1663746129,C;S;V;F,18.9,0x00c000,-32.5,0.00e-0
1663746130,C;S;V;F,19.1,0x00c000,-32.5,0.00e-0
1663746131,C;S;V;F,19.4,0x00c000,-31.7,
1663746132,,19.5,0x00c000,-31.4,0.00e-0
1663746133,C;S;V;F,19.3,0x00c000,-31.8,0.00e-0
1663746134,C;S;V;F,,0x00c000,-33.1,0.00e-0
1663746135,C;S;V;F,18.7,0x00c000,-33.1,0.00e-0
1663746136,C;S;V;F,18.7,0x00c000,,0.00e-0
1663746137,C;S;V;F,19.0,0x00c000,-32.4,0.00e-0
1663746138,C;S;V;F,18.7,0x00c000,-32.9,0.00e-0
1663746139,C;S;V;F,17.8,0x00c000,-34.6,0.00e-0
1663746140,C;S;V;F,17.2,0x00c000,-35.9,0.00e-0
1663746141,C;S;V;F,16.6,0x00c000,-36.6,0.00e-0
1663746142,C;S;V;F,16.8,0x00c000,-36.0,0.00e-0
1663746143,C;S;V;F,17.8,0x00c000,-33.9,0.00e-0
1663746144,,18.4,0x00c000,-34.3,
1663746145,C;S;V;F,16.7,0x00c000,-36.1,0.00e-0
1663746146,C;S;V;F,,0x00c000,-36.4,0.00e-0
1663746147,C;S;V;F,16.9,0x00c000,-33.6,0.00e-0
1663746148,C;S;V;F,18.3,0x00c000,,0.00e-0
1663746149,C;S;V;F,19.1,0x00c000,-32.1,0.00e-0
1663746150,C;S;V;F,19.2,0x00c000,-32.0,0.00e-0
1663746151,C;S;V;F,18.7,0x00c000,-32.8,0.00e-0
1663746152,C;S;V;F,18.8,0x00c000,-32.8,0.00e-0
1663746153,C;S;V;F,19.0,0x00c000,-32.2,0.00e-0
1663746154,C;S;V;F,19.3,0x00c000,-31.4,0.00e-0
1663746155,C;S;V;F,19.6,0x00c000,-30.4,0.00e-0
1663746156,C;S;V;F,19.6,0x00c000,-30.3,
1663746157,,19.6,0x00c000,-31.7,0.00e-0
1663746158,C;S;V;F,18.5,0x00c000,-33.7,0.00e-0
1663746159,C;S;V;F,18.5,0x00c000,-33.8,0.00e-0
1663746160,C;S;V;F,19.1,0x00c000,-32.1,0.00e-0
1663746161,C;S;V;F,,0x00c000,-31.4,0.00e-0
1663746162,C;S;V;F,19.3,0x00c000,-31.9,0.00e-0
1663746163,C;S;V;F,19.3,0x00c000,,0.00e-0
1663746164,C;S;V;F,18.3,0x00c000,-33.7,0.00e-0
1663746165,C;S;V;F,17.2,0x00c000,-36.1,0.00e-0
1663746166,C;S;V;F,16.2,0x00c000,-37.3,0.00e-0
1663746167,C;S;V;F,15.7,0x00c000,-37.0,0.00e-0
1663746168,C;S;V;F,16.2,0x00c000,-36.3,
1663746169,,17.4,0x00c000,-35.3,0.00e-0
1663746170,C;S;V;F,16.3,0x00c000,-36.2,0.00e-0
1663746171,C;S;V;F,,0x00c000,-38.3,0.00e-0
1663746172,C;S;V;F,14.9,0x00c000,,0.00e-0
1663746173,C;S;V;F,13.4,0x00c000,-40.2,0.00e-0
1663746174,C;S;V;F,13.7,0x00c000,-39.6,0.00e-0
1663746175,C;S;V;F,14.9,0x00c000,-37.9,0.00e-0
1663746176,C;S;V;F,16.0,0x00c000,-37.2,0.00e-0
1663746177,C;S;V;F,16.5,0x00c000,-36.5,0.00e-0
1663746178,C;S;V;F,16.7,0x00c000,-36.1,0.00e-0
1663746179,C;S;V;F,17.1,0x00c000,-35.8,0.00e-0
1663746180,C;S;V;F,16.8,0x00c000,-36.3,0.00e-0
1663746181,C;S;V;F,15.9,0x00c000,-37.1,0.00e-0
1663746182,C;S;V;F,14.6,0x00c000,-39.1,0.00e-0
1663746183,C;S;V;F,14.0,0x00c000,-38.5,
1663746184,,15.4,0x00c000,-36.0,0.00e-0
1663746185,C;S;V;F,17.3,0x00c000,-34.5,0.00e-0
1663746186,C;S;V;F,,,,0.00e-0
1663746188,,18.4,0x00c000,-33.7,
1663746189,C;S;V;F,17.6,0x00c000,-34.4,0.00e-0
1663746190,C;S;V;F,16.9,0x00c000,-36.1,0.00e-0
1663746191,C;S;V;F,,0x00c000,-37.2,0.00e-0
1663746192,C;S;V;F,16.0,0x00c000,,0.00e-0
1663746193,C;S;V;F,15.9,0x00c000,-37.2,0.00e-0
1663746194,C;S;V;F,16.5,0x00c000,-36.3,0.00e-0
1663746195,C;S;V;F,17.4,0x00c000,-34.9,0.00e-0
1663746196,C;S;V;F,18.2,0x00c000,-33.7,0.00e-0
1663746197,C;S;V;F,18.5,0x00c000,-33.2,0.00e-0
1663746198,C;S;V;F,18.6,0x00c000,-33.8,0.00e-0
1663746199,C;S;V;F,18.1,0x00c000,-35.1,0.00e-0
1663746200,C;S;V;F,17.3,0x00c000,-36.4,
1663746201,,15.6,0x00c000,-38.0,0.00e-0
1663746202,C;S;V;F,15.2,0x00c000,-38.1,0.00e-0
1663746203,C;S;V;F,15.6,0x00c000,-37.1,0.00e-0
1663746204,C;S;V;F,16.3,0x00c000,-35.7,0.00e-0
1663746205,C;S;V;F,,0x00c000,-34.8,0.00e-0
1663746206,C;S;V;F,17.0,0x00c000,-34.7,0.00e-0
1663746207,C;S;V;F,17.4,0x00c000,,0.00e-0
1663746208,C;S;V;F,17.5,0x00c000,-35.0,0.00e-0
1663746209,C;S;V;F,17.5,0x00c000,-35.3,0.00e-0
1663746210,C;S;V;F,17.3,0x00c000,-35.6,0.00e-0
1663746211,C;S;V;F,16.7,0x00c000,-36.2,0.00e-0
1663746212,C;S;V;F,16.7,0x00c000,-36.9,0.00e-0
1663746213,C;S;V;F,16.4,0x00c000,-37.1,0.00e-0
1663746214,C;S;V;F,16.1,0x00c000,-37.0,0.00e-0
1663746215,C;S;V;F,16.4,0x00c000,-36.6,
1663746216,,,,,0.00e-0
1663746219,,17.5,0x00c000,-35.1,
1663746220,C;S;V;F,17.5,0x00c000,-35.0,0.00e-0
1663746221,C;S;V;F,17.4,0x00c000,-35.0,0.00e-0
1663746222,C;S;V;F,,0x00c000,-35.2,0.00e-0
1663746223,C;S;V;F,17.3,0x00c000,-35.5,0.00e-0
1663746224,C;S;V;F,17.1,0x00c000,,0.00e-0
1663746225,C;S;V;F,17.0,0x00c000,-35.8,0.00e-0
1663746226,C;S;V;F,16.7,0x00c000,-36.1,0.00e-0
1663746227,C;S;V;F,16.6,0x00c000,-36.4,0.00e-0
1663746228,C;S;V;F,16.3,0x00c000,-36.7,0.00e-0
1663746229,C;S;V;F,16.1,0x00c000,-36.9,0.00e-0
1663746230,C;S;V;F,15.9,0x00c000,-37.1,0.00e-0
1663746231,C;S;V;F,15.9,0x00c000,-37.2,0.00e-0
1663746232,,15.9,0x00c000,-37.2,
1663746233,C;S;V;F,,0x00c000,-37.1,0.00e-0
1663746234,C;S;V;F,15.9,0x00c000,-36.8,0.00e-0
1663746235,C;S;V;F,16.1,0x00c000,,0.00e-0
1663746236,C;S;V;F,16.2,0x00c000,-36.8,0.00e-0
1663746237,C;S;V;F,16.2,0x00c000,-36.8,0.00e-0
1663746238,C;S;V;F,16.0,0x00c000,-37.0,0.00e-0
1663746239,C;S;V;F,16.2,0x00c000,-36.9,0.00e-0
1663746240,C;S;V;F,16.1,0x00c000,-36.9,0.00e-0
1663746241,C;S;V;F,16.0,0x00c000,-37.1,0.00e-0
1663746242,C;S;V;F,15.7,0x00c000,-37.2,0.00e-0
1663746243,,15.7,0x00c000,-37.2,
1663746244,C;S;V;F,15.8,0x00c000,-37.3,0.00e-0
1663746245,C;S;V;F,15.5,0x00c000,-37.4,0.00e-0
1663746246,C;S;V;F,15.2,0x00c000,-37.6,0.00e-0
1663746247,C;S;V;F,,0x00c000,-37.6,0.00e-0
1663746248,C;S;V;F,15.6,0x00c000,-37.5,0.00e-0
1663746249,C;S;V;F,15.6,0x00c000,,0.00e-0
1663746251,C;S;V;F,15.9,0x00c000,-37.0,0.00e-0
1663746252,,16.4,0x00c000,-36.8,
1663746253,C;S;V;F,16.5,0x00c000,-36.4,0.00e-0
1663746254,C;S;V;F,,0x00c000,-36.1,0.00e-0
1663746255,C;S;V;F,17.0,0x00c000,,0.00e-0
1663746256,C;S;V;F,17.1,0x00c000,-35.6,0.00e-0
1663746257,C;S;V;F,17.3,0x00c000,-35.2,0.00e-0